Portada
METAR-TAF:

METAR-TAF

Aeropuertos :

Aeropuerto de Burgos

Burgos, España

latitud: 42-22N, longitud: 003-38W, altitud: 894 m

Observación

El informe se hizo hace 25 minutos, a las 20:00 UTC
Viento 1 kt con dirección variable
Temperatura 4°C
Humedad 93%
Presión 1019 hPa
Visibilidad 10 km o más
sin nubes por debajo de 1500 m y sin presencia de cumulonimbus.

METAR: LEBG 292000Z AUTO VRB01KT CAVOK 04/03 Q1019

Hora: 21:25 (20:25 UTC)


TAF: falta

Observaciones y pronósticos meteorológicos de más de 4000 aeropuertos (mensajes METAR y TAF).

Los puntos amarillos y rojos representan las estaciones disponibles.

Ponga el ratón en el punto deseado para ver el nombre de la estación.

Haga clic para ver las observaciones y los pronósticos meteorológicos.

Para cambiar el mapa : haga clic en los botones verdes con una cruz de color negro para hacer un zoom, en el botón verde con un guión para alejar o en las flechas verdes para mapas adyacentes.


METAR-TAF: